Year,Month,Day,Hour,Minute,Value (Times are PST for temperature in C)
2005,09,21,00,00,11.10
2005,09,21,00,01,11.00
2005,09,21,00,02,10.90
2005,09,21,00,03,10.90
2005,09,21,00,04,10.90
2005,09,21,00,05,10.90
2005,09,21,00,06,10.90
2005,09,21,00,07,10.80
2005,09,21,00,08,10.80
2005,09,21,00,09,10.80
2005,09,21,00,10,10.90
2005,09,21,00,11,10.80
2005,09,21,00,12,10.80
2005,09,21,00,13,10.70
2005,09,21,00,14,10.60
2005,09,21,00,15,10.70
2005,09,21,00,16,10.70
2005,09,21,00,17,10.70
2005,09,21,00,18,10.60
2005,09,21,00,19,10.50
2005,09,21,00,20,10.40
2005,09,21,00,21,10.30
2005,09,21,00,22,10.20
2005,09,21,00,23,10.10
2005,09,21,00,24,9.90
2005,09,21,00,25,9.80
2005,09,21,00,26,9.80
2005,09,21,00,27,9.80
2005,09,21,00,28,9.80
2005,09,21,00,29,9.70
2005,09,21,00,30,9.70
2005,09,21,00,31,9.70
2005,09,21,00,32,9.70
2005,09,21,00,33,9.80
2005,09,21,00,34,9.90
2005,09,21,00,35,10.00
2005,09,21,00,36,10.10
2005,09,21,00,37,10.10
2005,09,21,00,38,10.20
2005,09,21,00,39,10.20
2005,09,21,00,40,10.20
2005,09,21,00,41,10.20
2005,09,21,00,42,10.20
2005,09,21,00,43,10.20
2005,09,21,00,44,10.20
2005,09,21,00,45,10.20
2005,09,21,00,46,10.40
2005,09,21,00,47,10.40
2005,09,21,00,48,10.40
2005,09,21,00,49,10.40
2005,09,21,00,50,10.40
2005,09,21,00,51,10.40
2005,09,21,00,52,10.40
2005,09,21,00,53,10.40
2005,09,21,00,54,10.40
2005,09,21,00,55,10.40
2005,09,21,00,56,10.40
2005,09,21,00,57,10.50
2005,09,21,00,58,10.40
2005,09,21,00,59,10.40
2005,09,21,01,00,10.40
2005,09,21,01,01,10.40
2005,09,21,01,02,10.40
2005,09,21,01,03,10.30
2005,09,21,01,04,10.20
2005,09,21,01,05,10.20
2005,09,21,01,06,10.20
2005,09,21,01,07,10.20
2005,09,21,01,08,10.30
2005,09,21,01,09,10.30
2005,09,21,01,10,10.20
2005,09,21,01,11,10.20
2005,09,21,01,12,10.20
2005,09,21,01,13,10.20
2005,09,21,01,14,10.20
2005,09,21,01,15,10.20
2005,09,21,01,16,10.20
2005,09,21,01,17,10.20
2005,09,21,01,18,10.30
2005,09,21,01,19,10.30
2005,09,21,01,20,10.30
2005,09,21,01,21,10.40
2005,09,21,01,22,10.30
2005,09,21,01,23,10.20
2005,09,21,01,24,10.10
2005,09,21,01,25,10.10
2005,09,21,01,26,10.00
2005,09,21,01,27,9.90
2005,09,21,01,28,9.90
2005,09,21,01,29,9.90
2005,09,21,01,30,9.90
2005,09,21,01,31,9.90
2005,09,21,01,32,9.90
2005,09,21,01,33,9.90
2005,09,21,01,34,9.90
2005,09,21,01,35,9.90
2005,09,21,01,36,9.90
2005,09,21,01,37,9.90
2005,09,21,01,38,9.90
2005,09,21,01,39,9.90
2005,09,21,01,40,9.90
2005,09,21,01,41,10.00
2005,09,21,01,42,10.10
2005,09,21,01,43,10.10
2005,09,21,01,44,10.10
2005,09,21,01,45,10.10
2005,09,21,01,46,9.90
2005,09,21,01,47,9.80
2005,09,21,01,48,9.70
2005,09,21,01,49,9.60
2005,09,21,01,50,9.60
2005,09,21,01,51,9.60
2005,09,21,01,52,9.60
2005,09,21,01,53,9.50
2005,09,21,01,54,9.50
2005,09,21,01,55,9.60
2005,09,21,01,56,9.60
2005,09,21,01,57,9.50
2005,09,21,01,58,9.40
2005,09,21,01,59,9.20
2005,09,21,02,00,9.20
2005,09,21,02,01,9.20
2005,09,21,02,02,9.20
2005,09,21,02,03,9.20
2005,09,21,02,04,9.20
2005,09,21,02,05,9.20
2005,09,21,02,06,9.20
2005,09,21,02,07,9.10
2005,09,21,02,08,9.10
2005,09,21,02,09,9.10
2005,09,21,02,10,9.10
2005,09,21,02,11,9.00
2005,09,21,02,12,9.10
2005,09,21,02,13,9.10
2005,09,21,02,14,9.20
2005,09,21,02,15,9.20
2005,09,21,02,16,9.20
2005,09,21,02,17,9.20
2005,09,21,02,18,9.20
2005,09,21,02,19,9.20
2005,09,21,02,20,9.20
2005,09,21,02,21,9.20
2005,09,21,02,22,9.20
2005,09,21,02,23,9.20
2005,09,21,02,24,9.20
2005,09,21,02,25,9.20
2005,09,21,02,26,9.20
2005,09,21,02,27,9.20
2005,09,21,02,28,9.30
2005,09,21,02,29,9.30
2005,09,21,02,30,9.40
2005,09,21,02,31,9.40
2005,09,21,02,32,9.40
2005,09,21,02,33,9.40
2005,09,21,02,34,9.40
2005,09,21,02,35,9.40
2005,09,21,02,36,9.40
2005,09,21,02,37,9.30
2005,09,21,02,38,9.20
2005,09,21,02,39,9.30
2005,09,21,02,40,9.40
2005,09,21,02,41,9.40
2005,09,21,02,42,9.40
2005,09,21,02,43,9.30
2005,09,21,02,44,9.40
2005,09,21,02,45,9.40
2005,09,21,02,46,9.40
2005,09,21,02,47,9.40
2005,09,21,02,48,9.30
2005,09,21,02,49,9.40
2005,09,21,02,50,9.40
2005,09,21,02,51,9.30
2005,09,21,02,52,9.30
2005,09,21,02,53,9.30
2005,09,21,02,54,9.30
2005,09,21,02,55,9.20
2005,09,21,02,56,9.20
2005,09,21,02,57,9.00
2005,09,21,02,58,8.90
2005,09,21,02,59,8.80
2005,09,21,03,00,8.80
2005,09,21,03,01,8.70
2005,09,21,03,02,8.70
2005,09,21,03,03,8.80
2005,09,21,03,04,8.80
2005,09,21,03,05,8.80
2005,09,21,03,06,8.80
2005,09,21,03,07,8.70
2005,09,21,03,08,8.70
2005,09,21,03,09,8.80
2005,09,21,03,10,8.80
2005,09,21,03,11,8.70
2005,09,21,03,12,8.70
2005,09,21,03,13,8.80
2005,09,21,03,14,8.90
2005,09,21,03,15,8.90
2005,09,21,03,16,8.80
2005,09,21,03,17,8.70
2005,09,21,03,18,8.70
2005,09,21,03,19,8.70
2005,09,21,03,20,8.70
2005,09,21,03,21,8.70
2005,09,21,03,22,8.60
2005,09,21,03,23,8.60
2005,09,21,03,24,8.60
2005,09,21,03,25,8.60
2005,09,21,03,26,8.60
2005,09,21,03,27,8.60
2005,09,21,03,28,8.50
2005,09,21,03,29,8.50
2005,09,21,03,30,8.50
2005,09,21,03,31,8.60
2005,09,21,03,32,8.60
2005,09,21,03,33,8.70
2005,09,21,03,34,8.70
2005,09,21,03,35,8.70
2005,09,21,03,36,8.70
2005,09,21,03,37,8.70
2005,09,21,03,38,8.70
2005,09,21,03,39,8.70
2005,09,21,03,40,8.70
2005,09,21,03,41,8.80
2005,09,21,03,42,8.80
2005,09,21,03,43,8.80
2005,09,21,03,44,8.70
2005,09,21,03,45,8.70
2005,09,21,03,46,8.70
2005,09,21,03,47,8.70
2005,09,21,03,48,8.70
2005,09,21,03,49,8.70
2005,09,21,03,50,8.70
2005,09,21,03,51,8.70
2005,09,21,03,52,8.70
2005,09,21,03,53,8.70
2005,09,21,03,54,8.70
2005,09,21,03,55,8.70
2005,09,21,03,56,8.70
2005,09,21,03,57,8.70
2005,09,21,03,58,8.70
2005,09,21,03,59,8.70
2005,09,21,04,00,8.80
2005,09,21,04,01,8.70
2005,09,21,04,02,8.70
2005,09,21,04,03,8.70
2005,09,21,04,04,8.70
2005,09,21,04,05,8.70
2005,09,21,04,06,8.70
2005,09,21,04,07,8.70
2005,09,21,04,08,8.70
2005,09,21,04,09,8.70
2005,09,21,04,10,8.70
2005,09,21,04,11,8.70
2005,09,21,04,12,8.70
2005,09,21,04,13,8.70
2005,09,21,04,14,8.70
2005,09,21,04,15,8.70
2005,09,21,04,16,8.70
2005,09,21,04,17,8.70
2005,09,21,04,18,8.70
2005,09,21,04,19,8.70
2005,09,21,04,20,8.70
2005,09,21,04,21,8.70
2005,09,21,04,22,8.70
2005,09,21,04,23,8.70
2005,09,21,04,24,8.70
2005,09,21,04,25,8.70
2005,09,21,04,26,8.60
2005,09,21,04,27,8.60
2005,09,21,04,28,8.50
2005,09,21,04,29,8.50
2005,09,21,04,30,8.50
2005,09,21,04,31,8.40
2005,09,21,04,32,8.40
2005,09,21,04,33,8.50
2005,09,21,04,34,8.40
2005,09,21,04,35,8.40
2005,09,21,04,36,8.30
2005,09,21,04,37,8.20
2005,09,21,04,38,8.20
2005,09,21,04,39,8.10
2005,09,21,04,40,8.00
2005,09,21,04,41,8.00
2005,09,21,04,42,8.00
2005,09,21,04,43,8.00
2005,09,21,04,44,8.00
2005,09,21,04,45,8.10
2005,09,21,04,46,8.10
2005,09,21,04,47,8.10
2005,09,21,04,48,8.00
2005,09,21,04,49,8.00
2005,09,21,04,50,8.00
2005,09,21,04,51,8.10
2005,09,21,04,52,8.10
2005,09,21,04,53,8.10
2005,09,21,04,54,8.20
2005,09,21,04,55,8.20
2005,09,21,04,56,8.20
2005,09,21,04,57,8.20
2005,09,21,04,58,8.20
2005,09,21,04,59,8.20
2005,09,21,05,00,8.30
2005,09,21,05,01,8.30
2005,09,21,05,02,8.30
2005,09,21,05,03,8.30
2005,09,21,05,04,8.20
2005,09,21,05,05,8.20
2005,09,21,05,06,8.10
2005,09,21,05,07,8.10
2005,09,21,05,08,8.10
2005,09,21,05,09,8.10
2005,09,21,05,10,8.10
2005,09,21,05,11,8.10
2005,09,21,05,12,8.00
2005,09,21,05,13,8.00
2005,09,21,05,14,8.00
2005,09,21,05,15,8.00
2005,09,21,05,16,8.00
2005,09,21,05,17,8.00
2005,09,21,05,18,7.90
2005,09,21,05,19,7.90
2005,09,21,05,20,7.90
2005,09,21,05,21,7.80
2005,09,21,05,22,7.80
2005,09,21,05,23,7.90
2005,09,21,05,24,7.90
2005,09,21,05,25,7.80
2005,09,21,05,26,7.80
2005,09,21,05,27,7.80
2005,09,21,05,28,7.90
2005,09,21,05,29,8.00
2005,09,21,05,30,8.00
2005,09,21,05,31,8.00
2005,09,21,05,32,8.00
2005,09,21,05,33,7.90
2005,09,21,05,34,7.90
2005,09,21,05,35,7.90
2005,09,21,05,36,7.90
2005,09,21,05,37,7.90
2005,09,21,05,38,7.90
2005,09,21,05,39,8.00
2005,09,21,05,40,7.90
2005,09,21,05,41,7.90
2005,09,21,05,42,7.90
2005,09,21,05,43,7.90
2005,09,21,05,44,7.80
2005,09,21,05,45,7.80
2005,09,21,05,46,7.70
2005,09,21,05,47,7.70
2005,09,21,05,48,7.60
2005,09,21,05,49,7.60
2005,09,21,05,50,7.60
2005,09,21,05,51,7.60
2005,09,21,05,52,7.60
2005,09,21,05,53,7.60
2005,09,21,05,54,7.60
2005,09,21,05,55,7.60
2005,09,21,05,56,7.60
2005,09,21,05,57,7.60
2005,09,21,05,58,7.60
2005,09,21,05,59,7.60
2005,09,21,06,00,7.50
2005,09,21,06,01,7.50
2005,09,21,06,02,7.50
2005,09,21,06,03,7.50
2005,09,21,06,04,7.60
2005,09,21,06,05,7.70
2005,09,21,06,06,7.70
2005,09,21,06,07,7.70
2005,09,21,06,08,7.70
2005,09,21,06,09,7.70
2005,09,21,06,10,7.60
2005,09,21,06,11,7.60
2005,09,21,06,12,7.50
2005,09,21,06,13,7.40
2005,09,21,06,14,7.30
2005,09,21,06,15,7.30
2005,09,21,06,16,7.30
2005,09,21,06,17,7.30
2005,09,21,06,18,7.30
2005,09,21,06,19,7.30
2005,09,21,06,20,7.40
2005,09,21,06,21,7.50
2005,09,21,06,22,7.50
2005,09,21,06,23,7.60
2005,09,21,06,24,7.70
2005,09,21,06,25,7.70
2005,09,21,06,26,7.70
2005,09,21,06,27,7.70
2005,09,21,06,28,7.70
2005,09,21,06,29,7.80
2005,09,21,06,30,7.70
2005,09,21,06,31,7.70
2005,09,21,06,32,7.70
2005,09,21,06,33,7.80
2005,09,21,06,34,7.80
2005,09,21,06,35,7.80
2005,09,21,06,36,7.70
2005,09,21,06,37,7.70
2005,09,21,06,38,7.70
2005,09,21,06,39,7.80
2005,09,21,06,40,7.70
2005,09,21,06,41,7.70
2005,09,21,06,42,7.70
2005,09,21,06,43,7.70
2005,09,21,06,44,7.70
2005,09,21,06,45,7.60
2005,09,21,06,46,7.50
2005,09,21,06,47,7.50
2005,09,21,06,48,7.40
2005,09,21,06,49,7.40
2005,09,21,06,50,7.30
2005,09,21,06,51,7.30
2005,09,21,06,52,7.20
2005,09,21,06,53,7.10
2005,09,21,06,54,7.10
2005,09,21,06,55,7.10
2005,09,21,06,56,7.10
2005,09,21,06,57,7.10
2005,09,21,06,58,7.10
2005,09,21,06,59,7.20
2005,09,21,07,00,7.20
2005,09,21,07,01,7.30
2005,09,21,07,02,7.30
2005,09,21,07,03,7.40
2005,09,21,07,04,7.40
2005,09,21,07,05,7.50
2005,09,21,07,06,7.50
2005,09,21,07,07,7.50
2005,09,21,07,08,7.40
2005,09,21,07,09,7.40
2005,09,21,07,10,7.40
2005,09,21,07,11,7.30
2005,09,21,07,12,7.30
2005,09,21,07,13,7.30
2005,09,21,07,14,7.30
2005,09,21,07,15,7.30
2005,09,21,07,16,7.30
2005,09,21,07,17,7.30
2005,09,21,07,18,7.30
2005,09,21,07,19,7.30
2005,09,21,07,20,7.30
2005,09,21,07,21,7.30
2005,09,21,07,22,7.30
2005,09,21,07,23,7.40
2005,09,21,07,24,7.50
2005,09,21,07,25,7.50
2005,09,21,07,26,7.60
2005,09,21,07,27,7.60
2005,09,21,07,28,7.70
2005,09,21,07,29,7.70
2005,09,21,07,30,7.70
2005,09,21,07,31,7.80
2005,09,21,07,32,7.90
2005,09,21,07,33,8.00
2005,09,21,07,34,8.00
2005,09,21,07,35,8.10
2005,09,21,07,36,8.20
2005,09,21,07,37,8.20
2005,09,21,07,38,8.20
2005,09,21,07,39,8.20
2005,09,21,07,40,8.30
2005,09,21,07,41,8.40
2005,09,21,07,42,8.50
2005,09,21,07,43,8.50
2005,09,21,07,44,8.60
2005,09,21,07,45,8.70
2005,09,21,07,46,8.70
2005,09,21,07,47,8.80
2005,09,21,07,48,8.90
2005,09,21,07,49,9.00
2005,09,21,07,50,9.00
2005,09,21,07,51,9.10
2005,09,21,07,52,9.10
2005,09,21,07,53,9.20
2005,09,21,07,54,9.30
2005,09,21,07,55,9.30
2005,09,21,07,56,9.30
2005,09,21,07,57,9.40
2005,09,21,07,58,9.60
2005,09,21,07,59,9.70
2005,09,21,08,00,9.80
2005,09,21,08,01,9.80
2005,09,21,08,02,9.90
2005,09,21,08,03,10.10
2005,09,21,08,04,10.10
2005,09,21,08,05,10.10
2005,09,21,08,06,10.10
2005,09,21,08,07,10.10
2005,09,21,08,08,10.10
2005,09,21,08,09,10.10
2005,09,21,08,10,10.10
2005,09,21,08,11,10.10
2005,09,21,08,12,10.10
2005,09,21,08,13,10.10
2005,09,21,08,14,10.10
2005,09,21,08,15,10.20
2005,09,21,08,16,10.20
2005,09,21,08,17,10.30
2005,09,21,08,18,10.30
2005,09,21,08,19,10.30
2005,09,21,08,20,10.40
2005,09,21,08,21,10.60
2005,09,21,08,22,10.60
2005,09,21,08,23,10.70
2005,09,21,08,24,10.80
2005,09,21,08,25,10.90
2005,09,21,08,26,10.90
2005,09,21,08,27,10.90
2005,09,21,08,28,11.00
2005,09,21,08,29,11.10
2005,09,21,08,30,11.10
2005,09,21,08,31,11.20
2005,09,21,08,32,11.20
2005,09,21,08,33,11.30
2005,09,21,08,34,11.40
2005,09,21,08,35,11.40
2005,09,21,08,36,11.50
2005,09,21,08,37,11.60
2005,09,21,08,38,11.60
2005,09,21,08,39,11.60
2005,09,21,08,40,11.70
2005,09,21,08,41,11.70
2005,09,21,08,42,11.70
2005,09,21,08,43,11.80
2005,09,21,08,44,11.80
2005,09,21,08,45,11.80
2005,09,21,08,46,11.80
2005,09,21,08,47,11.80
2005,09,21,08,48,11.80
2005,09,21,08,49,11.80
2005,09,21,08,50,11.80
2005,09,21,08,51,11.80
2005,09,21,08,52,11.90
2005,09,21,08,53,12.00
2005,09,21,08,54,12.10
2005,09,21,08,55,12.10
2005,09,21,08,56,12.10
2005,09,21,08,57,12.10
2005,09,21,08,58,12.10
2005,09,21,08,59,12.10
2005,09,21,09,00,12.10
2005,09,21,09,01,12.20
2005,09,21,09,02,12.20
2005,09,21,09,03,12.10
2005,09,21,09,04,12.20
2005,09,21,09,05,12.20
2005,09,21,09,06,12.20
2005,09,21,09,07,12.20
2005,09,21,09,08,12.30
2005,09,21,09,09,12.30
2005,09,21,09,10,12.30
2005,09,21,09,11,12.30
2005,09,21,09,12,12.30
2005,09,21,09,13,12.30
2005,09,21,09,14,12.30
2005,09,21,09,15,12.30
2005,09,21,09,16,12.30
2005,09,21,09,17,12.40
2005,09,21,09,18,12.40
2005,09,21,09,19,12.50
2005,09,21,09,20,12.50
2005,09,21,09,21,12.60
2005,09,21,09,22,12.60
2005,09,21,09,23,12.60
2005,09,21,09,24,12.60
2005,09,21,09,25,12.60
2005,09,21,09,26,12.60
2005,09,21,09,27,12.60
2005,09,21,09,28,12.70
2005,09,21,09,29,12.80
2005,09,21,09,30,12.80
2005,09,21,09,31,12.80
2005,09,21,09,32,12.90
2005,09,21,09,33,13.00
2005,09,21,09,34,13.00
2005,09,21,09,35,13.10
2005,09,21,09,36,13.10
2005,09,21,09,37,13.20
2005,09,21,09,38,13.20
2005,09,21,09,39,13.20
2005,09,21,09,40,13.10
2005,09,21,09,41,13.10
2005,09,21,09,42,13.10
2005,09,21,09,43,13.10
2005,09,21,09,44,13.10
2005,09,21,09,45,13.10
2005,09,21,09,46,13.10
2005,09,21,09,47,13.10
2005,09,21,09,48,13.00
2005,09,21,09,49,13.00
2005,09,21,09,50,13.10
2005,09,21,09,51,13.10
2005,09,21,09,52,13.10
2005,09,21,09,53,13.20
2005,09,21,09,54,13.20
2005,09,21,09,55,13.20
2005,09,21,09,56,13.20
2005,09,21,09,57,13.20
2005,09,21,09,58,13.10
2005,09,21,09,59,13.10
2005,09,21,10,00,13.10
2005,09,21,10,01,13.10
2005,09,21,10,02,13.10
2005,09,21,10,03,13.10
2005,09,21,10,04,13.10
2005,09,21,10,05,13.10
2005,09,21,10,06,13.10
2005,09,21,10,07,13.20
2005,09,21,10,08,13.20
2005,09,21,10,09,13.30
2005,09,21,10,10,13.30
2005,09,21,10,11,13.30
2005,09,21,10,12,13.30
2005,09,21,10,13,13.30
2005,09,21,10,14,13.30
2005,09,21,10,15,13.30
2005,09,21,10,16,13.40
2005,09,21,10,17,13.40
2005,09,21,10,18,13.50
2005,09,21,10,19,13.60
2005,09,21,10,20,13.70
2005,09,21,10,21,13.70
2005,09,21,10,22,13.60
2005,09,21,10,23,13.60
2005,09,21,10,24,13.60
2005,09,21,10,25,13.50
2005,09,21,10,26,13.60
2005,09,21,10,27,13.60
2005,09,21,10,28,13.60
2005,09,21,10,29,13.60
2005,09,21,10,30,13.60
2005,09,21,10,31,13.50
2005,09,21,10,32,13.50
2005,09,21,10,33,13.50
2005,09,21,10,34,13.50
2005,09,21,10,35,13.60
2005,09,21,10,36,13.70
2005,09,21,10,37,13.70
2005,09,21,10,38,13.70
2005,09,21,10,39,13.70
2005,09,21,10,40,13.70
2005,09,21,10,41,13.80
2005,09,21,10,42,13.80
2005,09,21,10,43,13.90
2005,09,21,10,44,13.90
2005,09,21,10,45,14.00
2005,09,21,10,46,13.90
2005,09,21,10,47,13.80
2005,09,21,10,48,13.80
2005,09,21,10,49,13.80
2005,09,21,10,50,13.80
2005,09,21,10,51,13.80
2005,09,21,10,52,13.80
2005,09,21,10,53,13.80
2005,09,21,10,54,13.80
2005,09,21,10,55,13.80
2005,09,21,10,56,13.80
2005,09,21,10,57,13.80
2005,09,21,10,58,13.80
2005,09,21,10,59,13.90
2005,09,21,11,00,13.90
2005,09,21,11,01,13.90
2005,09,21,11,02,14.00
2005,09,21,11,03,14.00
2005,09,21,11,04,13.90
2005,09,21,11,05,13.90
2005,09,21,11,06,13.80
2005,09,21,11,07,13.80
2005,09,21,11,08,13.80
2005,09,21,11,09,13.80
2005,09,21,11,10,13.80
2005,09,21,11,11,13.90
2005,09,21,11,12,13.90
2005,09,21,11,13,14.10
2005,09,21,11,14,14.10
2005,09,21,11,15,14.20
2005,09,21,11,16,14.20
2005,09,21,11,17,14.10
2005,09,21,11,18,14.10
2005,09,21,11,19,14.10
2005,09,21,11,20,14.00
2005,09,21,11,21,14.00
2005,09,21,11,22,14.00
2005,09,21,11,23,14.00
2005,09,21,11,24,14.00
2005,09,21,11,25,14.00
2005,09,21,11,26,14.00
2005,09,21,11,27,14.10
2005,09,21,11,28,14.20
2005,09,21,11,29,14.30
2005,09,21,11,30,14.30
2005,09,21,11,31,14.30
2005,09,21,11,32,14.30
2005,09,21,11,33,14.20
2005,09,21,11,34,14.20
2005,09,21,11,35,14.20
2005,09,21,11,36,14.20
2005,09,21,11,37,14.20
2005,09,21,11,38,14.30
2005,09,21,11,39,14.30
2005,09,21,11,40,14.40
2005,09,21,11,41,14.40
2005,09,21,11,42,14.40
2005,09,21,11,43,14.40
2005,09,21,11,44,14.50
2005,09,21,11,45,14.50
2005,09,21,11,46,14.50
2005,09,21,11,47,14.50
2005,09,21,11,48,14.50
2005,09,21,11,49,14.50
2005,09,21,11,50,14.40
2005,09,21,11,51,14.40
2005,09,21,11,52,14.50
2005,09,21,11,53,14.50
2005,09,21,11,54,14.50
2005,09,21,11,55,14.60
2005,09,21,11,56,14.70
2005,09,21,11,57,14.70
2005,09,21,11,58,14.70
2005,09,21,11,59,14.70
2005,09,21,12,00,14.70
2005,09,21,12,01,14.80
2005,09,21,12,02,14.80
2005,09,21,12,03,14.90
2005,09,21,12,04,14.80
2005,09,21,12,05,14.70
2005,09,21,12,06,14.60
2005,09,21,12,07,14.60
2005,09,21,12,08,14.60
2005,09,21,12,09,14.70
2005,09,21,12,10,14.90
2005,09,21,12,11,15.00
2005,09,21,12,12,15.00
2005,09,21,12,13,15.10
2005,09,21,12,14,15.10
2005,09,21,12,15,15.20
2005,09,21,12,16,15.10
2005,09,21,12,17,15.00
2005,09,21,12,18,15.00
2005,09,21,12,19,15.00
2005,09,21,12,20,15.00
2005,09,21,12,21,14.90
2005,09,21,12,22,14.90
2005,09,21,12,23,14.90
2005,09,21,12,24,14.90
2005,09,21,12,25,15.00
2005,09,21,12,26,15.00
2005,09,21,12,27,15.00
2005,09,21,12,28,15.00
2005,09,21,12,29,15.00
2005,09,21,12,30,15.10
2005,09,21,12,31,15.20
2005,09,21,12,32,15.30
2005,09,21,12,33,15.30
2005,09,21,12,34,15.30
2005,09,21,12,35,15.30
2005,09,21,12,36,15.40
2005,09,21,12,37,15.30
2005,09,21,12,38,15.10
2005,09,21,12,39,14.90
2005,09,21,12,40,14.90
2005,09,21,12,41,14.90
2005,09,21,12,42,15.00
2005,09,21,12,43,15.10
2005,09,21,12,44,15.30
2005,09,21,12,45,15.40
2005,09,21,12,46,15.40
2005,09,21,12,47,15.40
2005,09,21,12,48,15.30
2005,09,21,12,49,15.30
2005,09,21,12,50,15.30
2005,09,21,12,51,15.30
2005,09,21,12,52,15.30
2005,09,21,12,53,15.20
2005,09,21,12,54,15.20
2005,09,21,12,55,15.20
2005,09,21,12,56,15.10
2005,09,21,12,57,15.10
2005,09,21,12,58,15.20
2005,09,21,12,59,15.30
2005,09,21,13,00,15.50
2005,09,21,13,01,15.80
2005,09,21,13,02,15.80
2005,09,21,13,03,15.80
2005,09,21,13,04,15.70
2005,09,21,13,05,15.70
2005,09,21,13,06,15.80
2005,09,21,13,07,15.90
2005,09,21,13,08,15.90
2005,09,21,13,09,15.90
2005,09,21,13,10,15.90
2005,09,21,13,11,15.90
2005,09,21,13,12,15.90
2005,09,21,13,13,16.00
2005,09,21,13,14,16.10
2005,09,21,13,15,16.00
2005,09,21,13,16,15.90
2005,09,21,13,17,15.90
2005,09,21,13,18,15.90
2005,09,21,13,19,16.00
2005,09,21,13,20,16.00
2005,09,21,13,21,16.10
2005,09,21,13,22,16.20
2005,09,21,13,23,16.20
2005,09,21,13,24,16.00
2005,09,21,13,25,15.80
2005,09,21,13,26,15.50
2005,09,21,13,27,15.30
2005,09,21,13,28,15.10
2005,09,21,13,29,15.20
2005,09,21,13,30,15.30
2005,09,21,13,31,15.40
2005,09,21,13,32,15.40
2005,09,21,13,33,15.30
2005,09,21,13,34,15.40
2005,09,21,13,35,15.50
2005,09,21,13,36,15.60
2005,09,21,13,37,15.70
2005,09,21,13,38,15.60
2005,09,21,13,39,15.60
2005,09,21,13,40,15.60
2005,09,21,13,41,15.50
2005,09,21,13,42,15.40
2005,09,21,13,43,15.40
2005,09,21,13,44,15.40
2005,09,21,13,45,15.40
2005,09,21,13,46,15.30
2005,09,21,13,47,15.50
2005,09,21,13,48,15.60
2005,09,21,13,49,15.80
2005,09,21,13,50,15.80
2005,09,21,13,51,15.70
2005,09,21,13,52,15.50
2005,09,21,13,53,15.30
2005,09,21,13,54,15.40
2005,09,21,13,55,15.40
2005,09,21,13,56,15.40
2005,09,21,13,57,15.30
2005,09,21,13,58,15.30
2005,09,21,13,59,15.40
2005,09,21,14,00,15.50
2005,09,21,14,01,15.60
2005,09,21,14,02,15.60
2005,09,21,14,03,15.70
2005,09,21,14,04,15.60
2005,09,21,14,05,15.50
2005,09,21,14,06,15.50
2005,09,21,14,07,15.50
2005,09,21,14,08,15.40
2005,09,21,14,09,15.40
2005,09,21,14,10,15.30
2005,09,21,14,11,15.20
2005,09,21,14,12,15.20
2005,09,21,14,13,15.20
2005,09,21,14,14,15.30
2005,09,21,14,15,15.30
2005,09,21,14,16,15.40
2005,09,21,14,17,15.50
2005,09,21,14,18,15.70
2005,09,21,14,19,15.90
2005,09,21,14,20,16.00
2005,09,21,14,21,15.90
2005,09,21,14,22,15.80
2005,09,21,14,23,15.80
2005,09,21,14,24,15.70
2005,09,21,14,25,15.60
2005,09,21,14,26,15.60
2005,09,21,14,27,15.60
2005,09,21,14,28,15.70
2005,09,21,14,29,15.70
2005,09,21,14,30,15.60
2005,09,21,14,31,15.60
2005,09,21,14,32,15.60
2005,09,21,14,33,15.40
2005,09,21,14,34,15.30
2005,09,21,14,35,15.30
2005,09,21,14,36,15.30
2005,09,21,14,37,15.40
2005,09,21,14,38,15.50
2005,09,21,14,39,15.60
2005,09,21,14,40,15.60
2005,09,21,14,41,15.70
2005,09,21,14,42,15.70
2005,09,21,14,43,15.70
2005,09,21,14,44,15.90
2005,09,21,14,45,16.00
2005,09,21,14,46,16.10
2005,09,21,14,47,16.20
2005,09,21,14,48,16.20
2005,09,21,14,49,16.20
2005,09,21,14,50,16.20
2005,09,21,14,51,15.90
2005,09,21,14,52,15.80
2005,09,21,14,53,15.90
2005,09,21,14,54,15.90
2005,09,21,14,55,15.90
2005,09,21,14,56,15.80
2005,09,21,14,57,15.90
2005,09,21,14,58,16.10
2005,09,21,14,59,16.10
2005,09,21,15,00,16.20
2005,09,21,15,01,16.40
2005,09,21,15,02,16.40
2005,09,21,15,03,16.30
2005,09,21,15,04,16.20
2005,09,21,15,05,16.10
2005,09,21,15,06,16.10
2005,09,21,15,07,16.10
2005,09,21,15,08,16.20
2005,09,21,15,09,16.20
2005,09,21,15,10,16.20
2005,09,21,15,11,16.10
2005,09,21,15,12,16.20
2005,09,21,15,13,16.30
2005,09,21,15,14,16.40
2005,09,21,15,15,16.60
2005,09,21,15,16,16.80
2005,09,21,15,17,17.00
2005,09,21,15,18,17.20
2005,09,21,15,19,17.50
2005,09,21,15,20,17.60
2005,09,21,15,21,17.80
2005,09,21,15,22,17.90
2005,09,21,15,23,17.90
2005,09,21,15,24,17.90
2005,09,21,15,25,18.00
2005,09,21,15,26,18.20
2005,09,21,15,27,18.40
2005,09,21,15,28,18.40
2005,09,21,15,29,18.50
2005,09,21,15,30,18.30
2005,09,21,15,31,18.10
2005,09,21,15,32,18.10
2005,09,21,15,33,18.20
2005,09,21,15,34,18.30
2005,09,21,15,35,18.60
2005,09,21,15,36,18.90
2005,09,21,15,37,19.10
2005,09,21,15,38,19.10
2005,09,21,15,39,19.10
2005,09,21,15,40,19.10
2005,09,21,15,41,19.20
2005,09,21,15,42,19.20
2005,09,21,15,43,19.30
2005,09,21,15,44,19.30
2005,09,21,15,45,19.40
2005,09,21,15,46,19.40
2005,09,21,15,47,19.50
2005,09,21,15,48,19.50
2005,09,21,15,49,19.40
2005,09,21,15,50,19.40
2005,09,21,15,51,19.30
2005,09,21,15,52,19.30
2005,09,21,15,53,19.10
2005,09,21,15,54,19.10
2005,09,21,15,55,19.10
2005,09,21,15,56,19.10
2005,09,21,15,57,19.10
2005,09,21,15,58,19.10
2005,09,21,15,59,19.00
2005,09,21,16,00,18.90
2005,09,21,16,01,18.90
2005,09,21,16,02,18.70
2005,09,21,16,03,18.50
2005,09,21,16,04,18.40
2005,09,21,16,05,18.30
2005,09,21,16,06,18.30
2005,09,21,16,07,18.40
2005,09,21,16,08,18.50
2005,09,21,16,09,18.60
2005,09,21,16,10,18.60
2005,09,21,16,11,18.60
2005,09,21,16,12,18.60
2005,09,21,16,13,18.70
2005,09,21,16,14,18.80
2005,09,21,16,15,18.90
2005,09,21,16,16,18.90
2005,09,21,16,17,18.90
2005,09,21,16,18,18.90
2005,09,21,16,19,18.80
2005,09,21,16,20,18.80
2005,09,21,16,21,18.60
2005,09,21,16,22,18.40
2005,09,21,16,23,17.90
2005,09,21,16,24,17.80
2005,09,21,16,25,17.80
2005,09,21,16,26,17.80
2005,09,21,16,27,17.80
2005,09,21,16,28,17.90
2005,09,21,16,29,17.90
2005,09,21,16,30,17.90
2005,09,21,16,31,17.90
2005,09,21,16,32,17.80
2005,09,21,16,33,17.70
2005,09,21,16,34,17.60
2005,09,21,16,35,17.40
2005,09,21,16,36,17.20
2005,09,21,16,37,17.10
2005,09,21,16,38,17.10
2005,09,21,16,39,17.20
2005,09,21,16,40,17.50
2005,09,21,16,41,17.80
2005,09,21,16,42,18.00
2005,09,21,16,43,18.20
2005,09,21,16,44,18.40
2005,09,21,16,45,18.60
2005,09,21,16,46,18.70
2005,09,21,16,47,18.70
2005,09,21,16,48,18.90
2005,09,21,16,49,18.80
2005,09,21,16,50,18.80
2005,09,21,16,51,18.90
2005,09,21,16,52,18.80
2005,09,21,16,53,18.80
2005,09,21,16,54,18.70
2005,09,21,16,55,18.70
2005,09,21,16,56,18.70
2005,09,21,16,57,18.80
2005,09,21,16,58,18.90
2005,09,21,16,59,18.90
2005,09,21,17,00,19.00
2005,09,21,17,01,19.00
2005,09,21,17,02,18.90
2005,09,21,17,03,18.90
2005,09,21,17,04,19.00
2005,09,21,17,05,19.00
2005,09,21,17,06,18.90
2005,09,21,17,07,18.90
2005,09,21,17,08,18.80
2005,09,21,17,09,18.70
2005,09,21,17,10,18.70
2005,09,21,17,11,18.60
2005,09,21,17,12,18.70
2005,09,21,17,13,18.70
2005,09,21,17,14,18.70
2005,09,21,17,15,18.70
2005,09,21,17,16,18.60
2005,09,21,17,17,18.60
2005,09,21,17,18,18.60
2005,09,21,17,19,18.60
2005,09,21,17,20,18.50
2005,09,21,17,21,18.50
2005,09,21,17,22,18.50
2005,09,21,17,23,18.50
2005,09,21,17,24,18.60
2005,09,21,17,25,18.60
2005,09,21,17,26,18.60
2005,09,21,17,27,18.60
2005,09,21,17,28,18.60
2005,09,21,17,29,18.60
2005,09,21,17,30,18.60
2005,09,21,17,31,18.60
2005,09,21,17,32,18.60
2005,09,21,17,33,18.70
2005,09,21,17,34,18.70
2005,09,21,17,35,18.60
2005,09,21,17,36,18.40